CW5920 Weather Reports


time (UTC)temp
F
wind
direction
speed
knots
gust
knots
rain 1hr
in
rain 24hr
in
rain mn
in
humidity
%
barometer
mb
20260510174035 79 23 2.6 7.0 0.00 0.00 0.00 76 1015.5
20260510173015 79 45 0.9 4.3 0.00 0.00 0.00 76 1015.5
20260510172015 79 68 1.7 4.3 0.00 0.00 0.00 76 1015.4
20260510171015 79 113 3.5 7.8 0.00 0.00 0.00 76 1015.3
20260510170015 79 90 4.3 7.8 0.00 0.00 0.00 76 1014.9
20260510165017 79 135 6.1 11.3 0.00 0.00 0.00 75 1014.5
20260510164037 79 135 8.7 13.9 0.00 0.00 0.00 74 1014.3
20260510163017 80 135 8.7 13.0 0.00 0.00 0.00 72 1014.1
20260510162017 79 113 8.7 13.9 0.00 0.00 0.00 75 1013.8
20260510161017 79 113 9.6 14.8 0.00 0.00 0.00 74 1013.6
20260510160015 78 135 8.7 12.2 0.00 0.00 0.00 76 1013.3
20260510155017 78 113 11.3 15.6 0.00 0.00 0.00 75 1013.5
20260510154017 77 113 10.4 14.8 0.00 0.00 0.00 76 1013.6
20260510153017 77 113 12.2 17.4 0.00 0.00 0.00 75 1013.6
20260510152017 77 90 12.2 16.5 0.00 0.00 0.00 76 1013.8
20260510151017 76 113 13.0 20.0 0.00 0.00 0.00 75 1013.6
20260510150017 76 113 10.4 15.6 0.00 0.00 0.00 75 1013.7
20260510145017 75 90 8.7 13.0 0.00 0.00 0.00 77 1013.8
20260510144017 74 90 12.2 17.4 0.00 0.00 0.00 75 1013.8
20260510143017 73 90 9.6 14.8 0.00 0.00 0.00 75 1014.2
20260510142017 74 90 9.6 14.8 0.00 0.00 0.00 74 1014.3
20260510141015 73 90 8.7 12.2 0.00 0.00 0.00 75 1014.3
20260510140017 72 90 8.7 15.6 0.00 0.00 0.00 76 1014.3
20260510135017 71 90 8.7 13.9 0.00 0.00 0.00 78 1014.1
20260510134017 71 68 6.1 9.6 0.00 0.00 0.00 79 1014.4
20260510133017 71 68 7.0 10.4 0.00 0.00 0.00 79 1014.3
20260510132017 70 90 7.8 12.2 0.00 0.00 0.00 80 1014.1
20260510131017 69 90 7.8 12.2 0.00 0.00 0.00 81 1013.8
20260510130017 69 68 7.0 13.0 0.00 0.00 0.00 81 1014.1
20260510125017 69 68 7.8 11.3 0.00 0.00 0.00 81 1014.0
20260510124017 69 68 7.0 11.3 0.00 0.00 0.00 81 1013.8
20260510123017 69 90 7.0 10.4 0.00 0.00 0.00 82 1013.6
20260510122016 69 68 7.8 12.2 0.00 0.00 0.00 82 1013.4
20260510121017 69 68 7.8 12.2 0.00 0.00 0.00 82 1013.4
20260510120017 69 68 7.0 12.2 0.00 0.00 0.00 82 1013.4
20260510115017 69 68 9.6 14.8 0.00 0.00 0.00 82 1013.2
20260510114017 70 68 7.8 13.9 0.00 0.00 0.00 83 1013.1
20260510113037 70 68 9.6 15.6 0.00 0.00 0.00 83 1013.1
20260510112017 70 45 10.4 17.4 0.00 0.00 0.00 84 1013.0
20260510111017 72 45 7.0 14.8 0.00 0.00 0.00 90 1013.0
20260510110017 72 68 6.1 11.3 0.00 0.00 0.00 90 1013.0
20260510105037 72 68 5.2 9.6 0.00 0.00 0.00 90 1013.0
20260510104017 72 68 4.3 9.6 0.00 0.00 0.00 90 1012.9
20260510103017 72 68 4.3 9.6 0.00 0.00 0.00 90 1012.9
20260510102017 72 45 5.2 9.6 0.00 0.00 0.00 90 1012.8
20260510101017 72 45 3.5 8.7 0.00 0.00 0.00 90 1012.6
20260510100017 72 45 3.5 7.8 0.00 0.00 0.00 90 1012.5
20260510095017 71 45 2.6 7.0 0.00 0.00 0.00 90 1012.2
20260510094017 71 45 0.9 4.3 0.00 0.00 0.00 90 1012.1
20260510093017 71 23 0.9 4.3 0.00 0.00 0.00 89 1012.0
20260510092017 71 68 1.7 3.5 0.00 0.00 0.00 88 1011.5
20260510091017 71 23 1.7 4.3 0.00 0.00 0.00 88 1011.5
20260510090017 71 0.0 1.7 0.00 0.00 0.00 87 1011.6
20260510085016 72 338 0.9 2.6 0.00 0.00 0.00 87 1011.3
20260510084036 72 0.0 1.7 0.00 0.00 0.00 87 1011.0
20260510083016 72 0.0 0.9 0.00 0.00 0.00 87 1010.7
20260510082016 72 0.0 0.9 0.00 0.00 0.00 87 1010.3
20260510081016 73 0.0 0.0 0.00 0.00 0.00 86 1010.3
20260510080056 73 113 1.7 3.5 0.00 0.00 0.00 86 1010.1
20260510075016 73 113 2.6 5.2 0.00 0.00 0.00 86 1010.1
20260510074016 73 113 3.5 7.0 0.00 0.00 0.00 85 1010.1
20260510073016 74 113 1.7 3.5 0.00 0.00 0.00 84 1010.4
20260510072016 74 90 3.5 7.0 0.00 0.00 0.00 83 1010.5
20260510071016 75 90 1.7 6.1 0.00 0.00 0.00 82 1010.8
20260510070016 75 90 3.5 6.1 0.00 0.00 0.00 81 1010.8
20260510065016 76 135 1.7 6.1 0.00 0.00 0.00 80 1010.9
20260510064016 76 135 3.5 8.7 0.00 0.00 0.00 80 1010.3
20260510063016 76 135 7.0 10.4 0.00 0.00 0.00 79 1009.7
20260510062016 76 135 7.0 9.6 0.00 0.00 0.00 77 1009.7
20260510061016 76 135 8.7 12.2 0.00 0.00 0.00 76 1009.4
20260510060016 76 135 7.0 10.4 0.00 0.00 0.00 75 1009.3
20260510055036 76 135 7.8 12.2 0.00 0.00 0.00 75 1009.2
20260510054016 76 135 7.8 12.2 0.00 0.00 0.00 75 1009.1
20260510053036 75 135 6.1 10.4 0.00 0.00 0.00 75 1009.0
20260510052016 75 113 4.3 8.7 0.00 0.00 0.00 74 1008.9
20260510051016 75 113 4.3 7.0 0.00 0.00 0.00 73 1008.8
20260510050016 75 113 5.2 7.8 0.00 0.00 0.00 72 1008.8
20260510045016 75 113 6.1 8.7 0.00 0.00 0.00 73 1008.8
20260510044016 75 113 7.0 11.3 0.00 0.00 0.00 73 1009.1
20260510043016 75 113 5.2 8.7 0.00 0.00 0.00 74 1009.1
20260510042016 75 113 6.1 9.6 0.00 0.00 0.00 74 1009.0
20260510041016 75 113 5.2 8.7 0.00 0.00 0.00 73 1009.2
20260510040016 75 90 5.2 7.8 0.00 0.00 0.00 72 1009.1
20260510035036 75 113 4.3 7.0 0.00 0.00 0.00 71 1009.2
20260510034016 75 90 3.5 6.1 0.00 0.00 0.00 71 1009.3
20260510033036 75 90 4.3 7.0 0.00 0.00 0.00 70 1009.2
20260510032016 75 90 4.3 7.0 0.00 0.00 0.00 70 1009.2
20260510031016 75 90 4.3 7.0 0.00 0.00 0.00 71 1009.0
20260510030036 75 90 2.6 6.1 0.00 0.00 0.00 70 1008.9
20260510025056 76 90 2.6 5.2 0.00 0.00 0.00 70 1008.9
20260510024016 76 90 1.7 2.6 0.00 0.00 0.00 69 1008.7
20260510023016 77 90 1.7 2.6 0.00 0.00 0.00 68 1008.7
20260510022016 77 90 1.7 2.6 0.00 0.00 0.00 67 1008.6
20260510021016 77 90 1.7 2.6 0.00 0.00 0.00 67 1008.4
20260510020016 78 90 1.7 2.6 0.00 0.00 0.00 66 1008.3
20260510015016 78 90 1.7 2.6 0.00 0.00 0.00 66 1008.3
20260510014016 79 90 0.9 2.6 0.00 0.00 0.00 64 1008.1
20260510013016 79 90 1.7 3.5 0.00 0.00 0.00 63 1007.9
20260510012016 80 90 1.7 3.5 0.00 0.00 0.00 62 1007.8
20260510011016 81 90 1.7 2.6 0.00 0.00 0.00 61 1007.8
20260510010016 82 90 1.7 3.5 0.00 0.00 0.00 60 1007.8
20260510005016 83 90 1.7 3.5 0.00 0.00 0.00 59 1007.7
20260510004036 84 90 1.7 3.5 0.00 0.00 0.00 59 1007.7
20260510003036 84 90 0.9 3.5 0.00 0.00 0.00 58 1007.6
20260510002016 85 90 0.9 2.6 0.00 0.00 0.00 56 1007.7
20260510001036 85 90 1.7 3.5 0.00 0.00 0.00 56 1007.7
20260510000016 86 90 1.7 4.3 0.00 0.00 0.00 54 1007.8
20260509235016 86 90 1.7 6.1 0.00 0.00 0.00 54 1007.9
20260509234016 86 90 2.6 5.2 0.00 0.00 0.00 53 1007.8
20260509233036 87 135 0.9 3.5 0.00 0.00 0.00 52 1007.9
20260509232016 87 113 0.9 3.5 0.00 0.00 0.00 50 1007.8
20260509231016 87 113 0.9 5.2 0.00 0.00 0.00 51 1007.9
20260509230016 87 113 1.7 5.2 0.00 0.00 0.00 50 1008.0
20260509225016 88 113 3.5 6.1 0.00 0.00 0.00 50 1007.9
20260509224016 88 135 0.9 4.3 0.00 0.00 0.00 50 1007.9
20260509223016 88 113 0.9 5.2 0.00 0.00 0.00 49 1008.0
20260509222016 88 113 2.6 5.2 0.00 0.00 0.00 49 1007.9
20260509221016 89 90 0.9 5.2 0.00 0.00 0.00 49 1008.0
20260509220016 89 68 1.7 6.1 0.00 0.00 0.00 49 1008.1
20260509215016 90 90 2.6 6.1 0.00 0.00 0.00 50 1008.2
20260509214016 90 135 2.6 7.0 0.00 0.00 0.00 48 1008.2
20260509213016 90 0.0 0.9 0.00 0.00 0.00 46 1008.3
20260509212016 90 135 0.9 2.6 0.00 0.00 0.00 47 1008.5
20260509211016 90 113 0.9 4.3 0.00 0.00 0.00 46 1008.6
20260509210016 90 90 2.6 7.0 0.00 0.00 0.00 50 1008.7
20260509205016 90 0.0 1.7 0.00 0.00 0.00 47 1008.8
20260509204016 90 90 0.9 3.5 0.00 0.00 0.00 47 1009.0
20260509203016 91 0.0 0.9 0.00 0.00 0.00 46 1009.2
20260509202036 91 0.0 3.5 0.00 0.00 0.00 45 1009.3
20260509201016 91 293 0.9 7.0 0.00 0.00 0.00 46 1009.3
20260509200015 91 293 0.9 5.2 0.00 0.01 0.00 48 1009.6
20260509195015 90 293 0.9 7.8 0.00 0.04 0.00 46 1009.6
20260509194016 90 293 1.7 6.1 0.00 0.05 0.00 47 1009.7
20260509193016 90 0.0 0.9 0.00 0.05 0.00 46 1009.9
20260509192036 89 0.0 1.7 0.00 0.05 0.00 48 1010.0
20260509191016 88 0.0 4.3 0.00 0.05 0.00 50 1009.9
20260509190016 87 293 0.9 6.1 0.00 0.05 0.00 52 1010.0
20260509185015 87 270 1.7 6.1 0.00 0.05 0.00 52 1010.0
20260509184015 87 293 1.7 6.1 0.00 0.05 0.00 53 1010.1
20260509183016 87 293 2.6 7.8 0.00 0.05 0.00 52 1010.2
20260509182015 88 293 0.9 7.0 0.00 0.05 0.00 52 1010.5
20260509181015 87 293 0.9 5.2 0.00 0.05 0.00 53 1010.5
20260509180016 87 270 1.7 6.1 0.00 0.05 0.00 53 1010.7
20260509175016 86 315 1.7 7.0 0.00 0.05 0.00 54 1010.7